DW2370 Weather Reports


time (UTC)temp
F
wind
direction
speed
knots
gust
knots
rain 1hr
in
rain 24hr
in
rain mn
in
humidity
%
barometer
mb
20260507105022 57 0.0 0.0 0.00 0.00 0.00 88 1014.9
20260507104027 57 0.0 0.0 0.00 0.00 0.00 87 1015.0
20260507103022 58 0.0 0.0 0.00 0.00 0.00 87 1015.1
20260507102024 58 0.0 0.0 0.00 0.00 0.00 87 1015.2
20260507101026 58 0.0 0.0 0.00 0.00 0.00 87 1015.2
20260507100051 59 0.0 0.0 0.00 0.00 0.00 86 1015.4
20260507095026 59 0.0 0.0 0.00 0.00 0.00 87 1015.5
20260507094022 60 0.0 0.0 0.00 0.00 0.00 87 1015.5
20260507093025 60 0.0 0.0 0.00 0.00 0.00 87 1015.5
20260507092022 60 0.0 0.0 0.00 0.00 0.00 87 1015.6
20260507091026 61 0.0 0.0 0.00 0.00 0.00 88 1015.6
20260507090051 61 0.0 0.0 0.00 0.00 0.00 89 1015.7
20260507085026 61 0.0 0.0 0.00 0.00 0.00 89 1015.7
20260507084026 60 0.0 0.0 0.00 0.00 0.00 89 1015.9
20260507083021 60 0.0 0.0 0.00 0.00 0.00 89 1015.9
20260507082047 60 0.0 0.9 0.00 0.00 0.00 89 1015.9
20260507081026 59 0.0 0.9 0.00 0.00 0.00 89 1016.0
20260507080025 59 0.0 0.0 0.00 0.00 0.00 89 1016.1
20260507075026 59 0.0 0.0 0.00 0.00 0.00 88 1016.3
20260507074025 59 0.0 0.0 0.00 0.00 0.00 88 1016.3
20260507073025 58 0.0 0.0 0.00 0.00 0.00 88 1016.3
20260507072022 58 0.0 0.0 0.00 0.00 0.00 87 1016.3
20260507071021 58 0.0 0.0 0.00 0.00 0.00 87 1016.3
20260507070119 58 0.0 0.0 0.00 0.00 0.00 86 1016.3
20260507065050 58 0.0 0.0 0.00 0.00 0.00 86 1016.3
20260507064026 59 0.0 0.0 0.00 0.00 0.00 86 1016.5
20260507063021 59 0.0 0.0 0.00 0.00 0.00 85 1016.5
20260507062026 59 0.0 0.0 0.00 0.00 0.00 85 1016.5
20260507061021 60 0.0 0.0 0.00 0.00 0.00 85 1016.4
20260507060025 60 0.0 0.0 0.00 0.00 0.00 84 1016.3
20260507055025 60 0.0 0.0 0.00 0.00 0.00 84 1016.3
20260507054025 60 0.0 0.0 0.00 0.00 0.00 84 1016.5
20260507053025 61 0.0 0.0 0.00 0.00 0.00 84 1016.4
20260507052021 61 0.0 0.0 0.00 0.00 0.00 84 1016.4
20260507051021 61 0.0 0.0 0.00 0.00 0.00 84 1016.4
20260507050026 61 0.0 0.9 0.00 0.00 0.00 85 1016.3
20260507045025 61 0.0 0.9 0.00 0.00 0.00 85 1016.4
20260507044026 61 0.0 0.0 0.00 0.00 0.00 85 1016.3
20260507043025 61 0.0 0.9 0.00 0.00 0.00 85 1016.1
20260507042025 61 0.0 0.9 0.00 0.00 0.00 85 1016.1
20260507041021 62 0.0 0.9 0.00 0.00 0.00 85 1016.2
20260507040021 62 0.0 0.9 0.00 0.00 0.00 85 1016.1
20260507035025 62 0.0 0.9 0.00 0.00 0.00 85 1016.1
20260507034050 62 0.0 1.7 0.00 0.00 0.00 84 1015.9
20260507033025 62 0.0 0.9 0.00 0.00 0.00 84 1015.9
20260507032025 62 0.0 0.9 0.00 0.00 0.00 84 1015.9
20260507031026 63 0.0 0.9 0.00 0.00 0.00 84 1015.8
20260507030021 63 0.0 0.9 0.00 0.00 0.00 84 1015.8
20260507025021 63 0.0 0.9 0.00 0.00 0.00 83 1015.7
20260507024025 63 0.0 0.9 0.00 0.00 0.00 82 1015.6
20260507023025 64 0.0 0.9 0.00 0.00 0.00 81 1015.5
20260507022025 64 0.0 0.9 0.00 0.00 0.00 80 1015.4
20260507021025 65 0.0 3.5 0.00 0.00 0.00 79 1015.4
20260507020025 65 0.0 4.3 0.00 0.00 0.00 79 1015.4
20260507015021 66 0.0 1.7 0.00 0.00 0.00 78 1015.2
20260507014025 66 293 0.9 5.2 0.00 0.00 0.00 78 1015.5
20260507013050 66 270 0.9 6.1 0.00 0.00 0.00 78 1015.4
20260507012025 66 270 0.9 5.2 0.00 0.00 0.00 77 1015.4
20260507011025 67 293 1.7 9.6 0.00 0.00 0.00 75 1015.3
20260507010021 67 293 0.9 4.3 0.00 0.00 0.00 75 1015.3
20260507005021 67 270 1.7 8.7 0.00 0.00 0.00 75 1015.2
20260507004021 67 270 1.7 7.0 0.00 0.00 0.00 75 1015.2
20260507003050 67 248 0.9 6.1 0.00 0.00 0.00 75 1015.2
20260507002050 67 270 1.7 7.0 0.00 0.00 0.00 75 1015.2
20260507001140 67 293 0.9 5.2 0.00 0.00 0.00 75 1015.1
20260507000023 67 248 1.7 7.0 0.00 0.00 0.00 75 1015.0
20260506235021 67 270 1.7 7.8 0.00 0.00 0.00 75 1014.9
20260506234021 67 270 0.9 6.1 0.00 0.00 0.00 76 1014.9
20260506233025 67 248 1.7 8.7 0.00 0.00 0.00 76 1015.1
20260506232023 67 270 1.7 7.0 0.00 0.00 0.00 76 1015.1
20260506231025 67 270 1.7 7.0 0.00 0.00 0.00 74 1015.2
20260506230025 67 270 2.6 7.8 0.00 0.00 0.00 73 1015.1
20260506225025 67 293 0.9 7.0 0.00 0.00 0.00 75 1015.2
20260506224021 67 270 2.6 10.4 0.00 0.00 0.00 73 1015.2
20260506223021 67 270 3.5 9.6 0.00 0.00 0.00 72 1015.4
20260506222025 68 293 2.6 9.6 0.00 0.00 0.00 72 1015.4
20260506221050 68 270 2.6 8.7 0.00 0.00 0.00 72 1015.5
20260506220024 68 270 2.6 10.4 0.00 0.00 0.00 72 1015.6
20260506215023 68 293 2.6 10.4 0.00 0.00 0.00 72 1015.6
20260506214050 68 270 2.6 12.2 0.00 0.00 0.00 70 1015.6
20260506213021 67 270 1.7 8.7 0.00 0.00 0.00 71 1015.8
20260506212025 67 270 3.5 9.6 0.00 0.00 0.00 71 1015.9
20260506211025 67 270 1.7 7.0 0.00 0.00 0.00 70 1016.0
20260506210024 68 270 2.6 9.6 0.00 0.00 0.00 70 1016.0
20260506205025 68 270 1.7 9.6 0.00 0.00 0.00 70 1016.2
20260506204024 68 248 1.7 7.0 0.00 0.00 0.00 72 1016.2
20260506203024 67 293 0.9 7.8 0.00 0.00 0.00 72 1016.2
20260506202021 67 270 0.9 7.0 0.00 0.00 0.00 74 1016.2
20260506201050 67 270 2.6 9.6 0.00 0.00 0.00 72 1016.4
20260506200025 66 270 3.5 9.6 0.00 0.00 0.00 72 1016.4
20260506195025 66 248 2.6 8.7 0.00 0.00 0.00 72 1016.5
20260506194023 66 248 2.6 9.6 0.00 0.00 0.00 72 1016.6
20260506193025 66 270 2.6 8.7 0.00 0.00 0.00 72 1016.8
20260506192020 66 270 1.7 10.4 0.00 0.00 0.00 71 1017.0
20260506191020 66 248 0.9 6.1 0.00 0.00 0.00 71 1017.0
20260506190024 66 248 0.9 6.1 0.00 0.00 0.00 71 1017.0
20260506185025 65 225 1.7 8.7 0.00 0.00 0.00 72 1017.0
20260506184025 66 0.0 3.5 0.00 0.00 0.00 70 1017.0
20260506183049 66 293 0.9 3.5 0.00 0.00 0.00 72 1017.1
20260506182025 65 270 0.9 4.3 0.00 0.00 0.00 72 1017.1
20260506181021 65 270 0.9 7.0 0.00 0.00 0.00 72 1017.3
20260506180021 65 293 0.9 6.1 0.00 0.00 0.00 73 1017.4
20260506175025 65 293 0.9 6.1 0.00 0.00 0.00 74 1017.4
20260506174025 65 248 0.9 4.3 0.00 0.00 0.00 73 1017.4
20260506173025 65 0.0 3.5 0.00 0.00 0.00 72 1017.4
20260506172025 65 0.0 1.7 0.00 0.00 0.00 74 1017.5
20260506171020 64 270 1.7 6.1 0.00 0.00 0.00 74 1017.4
20260506170025 64 270 0.9 5.2 0.00 0.00 0.00 73 1017.7
20260506165115 64 270 0.9 5.2 0.00 0.00 0.00 73 1017.6
20260506164048 64 248 0.9 4.3 0.00 0.00 0.00 72 1017.6
20260506163025 64 0.0 2.6 0.00 0.00 0.00 73 1017.6
20260506162024 64 0.0 0.9 0.00 0.00 0.00 71 1017.5
20260506161025 65 0.0 1.7 0.00 0.00 0.00 71 1017.5
20260506160021 65 0.0 0.9 0.00 0.00 0.00 70 1017.5
20260506155024 66 0.0 0.0 0.00 0.00 0.00 70 1017.5
20260506154024 65 0.0 0.9 0.00 0.00 0.00 70 1017.4
20260506153049 65 0.0 0.0 0.00 0.00 0.00 70 1017.4
20260506152115 63 0.0 0.0 0.00 0.00 0.00 72 1017.3
20260506151024 63 0.0 0.0 0.00 0.00 0.00 73 1017.5
20260506150021 62 0.0 0.0 0.00 0.00 0.00 74 1017.6
20260506145021 61 0.0 0.9 0.00 0.00 0.00 76 1017.5
20260506144024 60 0.0 0.9 0.00 0.00 0.00 78 1017.4
20260506143025 59 0.0 0.9 0.00 0.00 0.00 79 1017.3
20260506142024 58 0.0 0.9 0.00 0.00 0.00 82 1017.2
20260506141024 56 0.0 0.9 0.00 0.00 0.00 82 1017.3
20260506140050 56 0.0 0.0 0.00 0.00 0.00 84 1017.3
20260506135020 55 0.0 0.9 0.00 0.00 0.00 85 1017.1
20260506134045 55 0.0 0.9 0.00 0.00 0.00 85 1017.0
20260506133025 54 0.0 0.9 0.00 0.00 0.00 86 1016.9
20260506132024 54 0.0 0.9 0.00 0.01 0.00 86 1016.8
20260506131024 54 0.0 0.9 0.00 0.05 0.00 86 1016.8
20260506130024 54 0.0 0.0 0.00 0.05 0.00 86 1016.6
20260506125020 54 0.0 0.0 0.00 0.05 0.00 86 1016.5
20260506124024 54 0.0 0.0 0.00 0.05 0.00 86 1016.5
20260506123020 54 0.0 0.0 0.00 0.05 0.00 85 1016.5
20260506122024 54 0.0 0.0 0.00 0.05 0.00 85 1016.5
20260506121049 54 0.0 0.9 0.00 0.05 0.00 85 1016.5
20260506120024 54 0.0 0.0 0.00 0.06 0.00 85 1016.5
20260506115024 54 0.0 0.0 0.00 0.06 0.00 86 1016.4
20260506114045 54 0.0 0.0 0.00 0.07 0.00 86 1016.4
20260506113024 54 0.0 0.9 0.00 0.07 0.00 86 1016.5
20260506112020 55 0.0 0.0 0.00 0.08 0.00 86 1016.3
20260506111049 55 0.0 0.0 0.00 0.11 0.00 85 1016.3
20260506110049 55 0.0 0.0 0.00 0.11 0.00 85 1016.3